Location: La Bastide
(43.1661°N, 1.2755°E)
Time: 07:41:10
(UTC+00:00)

Cosmos 1953 Rocket - Pass Details

Date: 19 March 2026
Orbit: 599 x 626 km, 82.5° (Epoch: 18 April)

Event Time Altitude Azimuth Distance (km) Brightness Sun altitude
Rises 18:51:06 0° 203° (SSW) 2,831 7.2 -9.0°
Reaches altitude 10° 18:53:22 10° 210° (SSW) 1,935 6.4 -9.4°
Maximum altitude 18:57:27 44° 282° (WNW) 843 4.9 -10.2°
Drops below altitude 10° 19:01:36 10° 355° (N) 1,958 6.3 -10.9°
Sets 19:03:55 0° 2° (N) 2,871 7.1 -11.3°
